Location: Dresden
(51.0500°N, 13.7500°E)
Time: 08:45:08
(UTC+00:00)

ISS - Visible Passes

Search period start: 23 September 2018 00:00
Search period end: 03 October 2018 00:00
Orbit: 403 x 408 km, 51.6° (Epoch: 23 September)

Date Brightness Start Highest point End Pass type
(mag) Time Alt. Az. Time Alt. Az. Time Alt. Az.
23 Sep -1.5 17:37:38 10° SE 17:38:10 10° SE 17:38:43 10° SE visible
23 Sep -2.0 19:10:52 10° SW 19:12:21 23° SSW 19:12:21 23° SSW visible
24 Sep -2.8 18:19:20 10° SSW 18:22:15 29° SSE 18:22:54 27° SE visible
24 Sep -0.8 19:55:13 10° WSW 19:55:36 13° WSW 19:55:36 13° WSW visible
25 Sep -2.2 17:28:05 10° SSW 17:30:31 19° SE 17:32:59 10° E visible
25 Sep -3.3 19:03:21 10° WSW 19:05:59 51° SW 19:05:59 51° SW visible
26 Sep -3.5 18:11:33 10° SW 18:14:46 49° SSE 18:16:15 27° E visible
26 Sep -1.2 19:47:55 10° W 19:48:56 19° W 19:48:56 19° W visible
27 Sep -3.8 18:55:57 10° W 18:59:06 80° W 18:59:06 80° W visible
28 Sep -3.9 18:04:02 10° WSW 18:07:20 76° SSE 18:09:12 24° E visible
28 Sep -1.3 19:40:34 10° W 19:41:53 22° W 19:41:53 22° W visible
29 Sep -3.8 18:48:35 10° W 18:51:54 78° N 18:51:54 78° N visible
30 Sep -3.8 17:56:35 10° W 17:59:54 84° NNW 18:01:54 22° E visible
30 Sep -1.4 19:33:09 10° W 19:34:34 23° W 19:34:34 23° W visible
01 Oct -3.9 18:41:10 10° W 18:44:28 82° N 18:44:32 81° NNE visible
02 Oct -3.8 17:49:09 10° W 17:52:27 78° N 17:54:30 21° E visible
02 Oct -1.5 19:25:41 10° W 19:27:09 24° W 19:27:09 24° W visible
